GW3387 Weather Reports


Display with metric or nautical units.
time (UTC)temp
F
wind
direction
speed
MPH
gust
MPH
rain 1hr
in
rain 24hr
in
rain mn
in
humidity
%
barometer
mb
20260906043044 56 279 2.0 7.0 0.00 0.02 0.00 100 1014.8
20260906041537 55 281 5.0 8.0 0.00 0.02 0.00 100 1014.7
20260906040034 55 279 2.0 5.0 0.00 0.02 0.00 100 1014.6
20260906034527 55 267 4.0 9.0 0.00 0.02 0.00 100 1014.5
20260906033025 54 266 2.0 5.0 0.00 0.02 0.00 100 1014.3
20260906031540 54 252 2.0 6.0 0.00 0.02 0.00 100 1014.3
20260906030022 53 257 1.0 3.0 0.00 0.02 0.00 100 1014.1
20260906024523 53 257 0.0 2.0 0.00 0.02 0.00 100 1013.9
20260906023021 54 257 0.0 2.0 0.00 0.02 0.00 100 1013.6
20260906021520 55 257 0.0 0.0 0.00 0.02 0.00 100 1013.5
20260906020024 55 257 0.0 1.0 0.00 0.02 0.00 100 1013.7
20260906014517 56 257 0.0 2.0 0.00 0.02 0.00 100 1013.9
20260906013015 55 257 2.0 4.0 0.00 0.02 0.00 100 1013.9
20260906011515 54 257 1.0 4.0 0.00 0.02 0.00 100 1013.9
20260906010012 52 257 0.0 3.0 0.00 0.02 0.00 100 1013.9
20260906004511 51 257 0.0 0.0 0.00 0.02 0.00 100 1014.0
20260906003019 50 256 0.0 0.0 0.00 0.02 0.00 100 1014.0
20260906001510 50 256 0.0 0.0 0.00 0.02 0.00 100 1014.0
20260906000009 50 360 0.0 0.0 0.00 0.02 0.00 100 1014.1
20260905234510 50 254 0.0 0.0 0.00 0.02 0.00 100 1013.9
20260905233008 51 360 0.0 0.0 0.00 0.02 0.00 100 1014.0
20260905231505 52 360 0.0 0.0 0.00 0.02 0.00 100 1013.9
20260905230001 52 360 0.0 0.0 0.00 0.02 0.00 100 1014.0
20260905224608 53 256 0.0 1.0 0.00 0.02 0.00 100 1013.9
20260905223059 53 360 0.0 2.0 0.00 0.02 0.00 100 1013.9
20260905221600 53 255 0.0 1.0 0.00 0.02 0.00 100 1014.0
20260905214554 54 261 1.0 4.0 0.00 0.02 0.00 100 1013.9
20260905213100 54 262 0.0 2.0 0.00 0.02 0.00 100 1014.1
20260905211550 54 263 0.0 1.0 0.00 0.02 0.00 100 1013.9
20260905210104 54 263 0.0 0.0 0.00 0.02 0.00 100 1013.9
20260905204547 55 263 0.0 1.0 0.00 0.02 0.02 100 1013.9
20260905203048 55 263 1.0 3.0 0.00 0.02 0.02 100 1013.9
20260905201548 54 263 0.0 0.0 0.00 0.02 0.02 100 1013.7
20260905200056 54 263 0.0 1.0 0.00 0.02 0.02 100 1013.6
20260905194542 56 263 0.0 2.0 0.00 0.02 0.02 100 1013.6
20260905193040 56 263 2.0 4.0 0.00 0.02 0.02 100 1013.4
20260905191541 55 264 2.0 3.0 0.00 0.02 0.02 100 1013.3
20260905190037 53 360 1.0 3.0 0.00 0.02 0.02 100 1013.2
20260905184537 53 360 0.0 0.0 0.00 0.02 0.02 100 1013.2
20260905183032 53 360 0.0 0.0 0.00 0.02 0.02 100 1013.2
20260905181529 55 265 0.0 1.0 0.00 0.02 0.02 100 1013.0
20260905180028 57 265 0.0 2.0 0.00 0.02 0.02 100 1013.1
20260905174526 59 265 0.0 2.0 0.00 0.02 0.02 100 1013.1
20260905173025 60 265 1.0 4.0 0.00 0.02 0.02 100 1012.9
20260905171538 60 360 1.0 3.0 0.00 0.02 0.02 100 1012.7
20260905170029 61 360 2.0 4.0 0.00 0.02 0.02 100 1012.5
20260905164523 62 360 2.0 5.0 0.00 0.02 0.02 100 1012.3
20260905163025 63 360 1.0 4.0 0.00 0.02 0.02 100 1012.2
20260905161533 63 360 2.0 6.0 0.00 0.02 0.02 100 1012.1
20260905160032 65 360 1.0 4.0 0.00 0.02 0.02 100 1012.2
20260905154544 67 360 2.0 9.0 0.00 0.02 0.02 100 1012.0
20260905153025 67 360 2.0 7.0 0.00 0.02 0.02 100 1012.0
20260905151519 68 269 3.0 8.0 0.00 0.02 0.02 100 1012.0
20260905150019 66 281 2.0 8.0 0.00 0.02 0.02 100 1011.9
20260905144531 65 360 1.0 5.0 0.00 0.02 0.02 100 1011.9
20260905143018 63 360 0.0 3.0 0.00 0.02 0.02 100 1012.2
20260905141523 63 360 1.0 4.0 0.00 0.02 0.02 100 1012.3
20260905140021 63 360 1.0 5.0 0.00 0.02 0.02 100 1011.7
20260905134516 64 360 1.0 4.0 0.00 0.02 0.02 100 1012.1
20260905133016 64 360 3.0 6.0 0.00 0.02 0.02 100 1012.2
20260905131514 63 360 1.0 6.0 0.00 0.02 0.02 100 1012.1
20260905130017 64 360 2.0 5.0 0.00 0.02 0.02 100 1012.3
20260905124519 64 360 1.0 4.0 0.00 0.02 0.02 100 1012.2
20260905123014 64 360 2.0 6.0 0.00 0.02 0.02 100 1012.7
20260905121512 65 360 3.0 11.0 0.00 0.02 0.02 100 1013.0
20260905120011 66 360 3.0 6.0 0.00 0.02 0.02 100 1012.4
20260905114511 64 360 1.0 3.0 0.01 0.02 0.02 100 1012.4
20260905113010 64 360 0.0 4.0 0.02 0.02 0.02 100 1012.5
20260905111509 64 360 1.0 6.0 0.02 0.02 0.02 100 1012.5
20260905110008 63 360 1.0 5.0 0.02 0.02 0.02 100 1012.1
20260905104510 65 360 2.0 11.0 0.02 0.02 0.02 100 1012.5
20260905103006 70 313 4.0 10.0 0.00 0.00 0.00 100 1011.9
20260905101502 72 360 4.0 12.0 0.00 0.00 0.00 100 1010.9
20260905100001 73 360 4.0 10.0 0.00 0.00 0.00 100 1011.0
20260905094609 75 275 4.0 13.0 0.00 0.00 0.00 100 1010.6
20260905093059 75 286 4.0 13.0 0.00 0.00 0.00 100 1010.2
20260905091607 77 300 4.0 12.0 0.00 0.00 0.00 100 1010.1
20260905090056 77 255 6.0 13.0 0.00 0.00 0.00 100 1010.1
20260905084554 78 278 10.0 16.0 0.00 0.01 0.00 100 1009.8
20260905083050 77 284 9.0 15.0 0.00 0.01 0.00 100 1009.7
20260905081558 76 257 8.0 13.0 0.00 0.01 0.00 100 1009.7
20260905080054 76 283 7.0 12.0 0.00 0.01 0.00 100 1009.5
20260905074539 76 300 3.0 10.0 0.00 0.01 0.00 100 1009.6
20260905073043 75 332 2.0 8.0 0.00 0.01 0.00 100 1009.2
20260905071531 75 278 3.0 9.0 0.00 0.01 0.00 100 1009.1
20260905070032 75 288 3.0 9.0 0.00 0.01 0.00 100 1008.9
20260905064523 74 278 7.0 12.0 0.00 0.01 0.00 100 1008.9
20260905063020 74 281 4.0 10.0 0.00 0.01 0.00 100 1008.9
20260905061517 72 279 5.0 10.0 0.00 0.01 0.00 100 1009.0
20260905060013 70 270 2.0 3.0 0.00 0.01 0.00 100 1009.2
20260905054508 66 251 0.0 3.0 0.00 0.01 0.00 100 1009.1
20260905053004 62 185 0.0 0.0 0.00 0.01 0.00 100 1009.0
20260905051502 60 360 0.0 0.0 0.00 0.01 0.00 100 1008.9
20260905050058 59 185 0.0 0.0 0.00 0.01 0.00 100 1008.6
20260905044557 58 185 0.0 1.0 0.00 0.01 0.00 100 1008.6